Location: Antioch
(38.0049°N, 121.8058°W)
Time: 18:53:11
(UTC+00:00)

Cosmos 1980 Rocket - Pass Details

Date: 11 February 2026
Orbit: 828 x 849 km, 71.0° (Epoch: 10 March)

Event Time Altitude Azimuth Distance (km) Brightness Sun altitude
Rises 13:26:57 0° 204° (SSW) 3,355 5.1 -19.2°
Reaches altitude 10° 13:29:22 10° 205° (SSW) 2,424 4.4 -18.7°
Maximum altitude 13:34:56 80° 292° (WNW) 844 2.0 -17.6°
Drops below altitude 10° 13:40:32 10° 20° (NNE) 2,439 4.8 -16.5°
Sets 13:42:59 0° 22° (NNE) 3,377 5.6 -16.0°
